#timestamp,LO_Frequency,Hit,StdDev 
1514322015.2,286047000.7,N
1514322035.0,286047000.7,N
1514322035.9,286047000.7,N
1514322055.7,286046996.7,N
1514322075.6,286046997.2,N
1514322095.4,286046999.5,N
1514322115.3,286047001.0,N
1514322135.1,286047002.8,N
1514322155.8,286046999.8,N
1514322175.7,286047001.9,N
1514322195.5,286047004.0,N
1514322215.4,286047002.0,N
1514322235.2,286047001.6,N
1514322255.0,286047001.7,N
1514322255.9,286047001.7,N
1514322275.8,286047002.6,N
1514322295.6,286047001.5,N
1514322315.5,286047004.3,N
1514322335.3,286047001.4,N
1514322355.1,286047004.3,N
1514322375.9,286047001.4,N
1514322395.7,286047004.1,N
1514322415.5,286047002.2,N
1514322435.4,286047002.3,N
1514322455.2,286046999.8,N
1514322475.1,286047002.8,N
1514322476.0,286047002.8,N
1514322495.8,286047001.6,N
1514322515.6,286047004.4,N
1514322535.5,286047004.3,N
1514322555.3,286047000.0,N
1514322575.2,286047000.4,N
1514322595.9,286047000.2,N
1514322615.7,286047000.1,N
1514322635.6,286047003.7,N
1514322655.4,286047003.9,N
1514322675.3,286047001.3,N
1514322695.1,286047001.8,N
1514322696.0,286047001.8,N
1514322715.8,286047003.8,N
1514322735.7,286047003.2,N
1514322755.5,286047006.0,Y
1514322775.3,286047002.0,P
1514322795.2,286047003.4,P
1514322815.0,286047006.8,P
1514322815.9,286047006.8,Y
1514322835.8,286047000.4,P
1514322855.6,286046996.8,N
1514322875.4,286046996.7,N
1514322895.3,286046999.0,N
1514322915.1,286046997.6,N
1514322935.9,286046997.4,N
1514322955.7,286046997.5,N
1514322975.5,286046996.6,N
1514322995.4,286046997.6,N
1514323015.2,286046995.7,N
1514323035.1,286046995.9,N
1514323036.0,286046995.9,N
1514323055.8,286046995.9,N
1514323075.6,286046997.9,N
1514323095.5,286046997.5,N
1514323115.3,286046995.2,N
1514323135.1,286046995.2,N
1514323155.9,286046995.6,N
1514323175.7,286046997.3,N
1514323195.6,286046998.7,N
1514323215.4,286047001.2,N
1514323235.2,286046996.8,N
1514323255.1,286046996.4,N
1514323256.0,286046996.4,N
1514323275.8,286046997.2,N
1514323295.7,286046998.5,N
1514323315.5,286046998.1,N
1514323335.3,286047000.9,N
1514323355.2,286047001.2,N
1514323375.0,286046996.8,N
1514323375.9,286046996.8,N
1514323395.7,286046997.6,N
1514323415.6,286046999.1,N
1514323435.4,286047000.8,N
1514323455.3,286046999.7,N
1514323475.1,286047000.5,N
1514323495.8,286046998.3,N
1514323515.7,286046999.5,N
1514323535.5,286046998.6,N
1514323555.4,286046997.4,N
1514323575.2,286046998.8,N
1514323595.0,286047000.1,N
1514323595.9,286047000.1,N
1514323615.8,286047000.0,N
1514323635.6,286047001.1,N
1514323655.4,286047000.8,N
1514323675.3,286046999.9,N
1514323695.1,286047000.0,N
1514323715.9,286047000.0,N
1514323735.7,286047000.2,N
1514323755.5,286047001.1,N
1514323775.4,286047002.6,N
1514323795.2,286047000.2,N
1514323815.1,286047001.9,N
1514323816.0,286047001.9,N
1514323835.8,286047001.7,N
1514323855.6,286047001.9,N
1514323875.5,286047004.1,N
1514323895.3,286047001.4,N
1514323915.1,286046999.7,N
1514323935.9,286047001.1,N
1514323955.7,286046999.6,N
1514323975.6,286046997.4,N
1514323995.4,286046994.4,Y
1514324015.2,286046993.5,P
1514324035.1,286046997.0,N
1514324036.0,286046997.0,N
1514324055.8,286046993.9,N
1514324075.7,286046997.2,N
1514324095.5,286046999.2,N
1514324115.3,286046999.3,N
1514324135.2,286046996.8,N
1514324155.0,286046996.6,N
1514324155.9,286046996.6,N
1514324175.8,286046999.4,N
1514324195.6,286046999.3,N
1514324215.4,286046996.9,N
1514324235.3,286046997.5,N
1514324255.1,286046997.8,N
1514324275.8,286046997.3,N
1514324295.7,286046997.5,N
1514324315.5,286046996.4,N
1514324335.4,286046993.8,Y
1514324355.2,286046994.9,P
1514324375.0,286046996.4,N
1514324375.9,286046996.4,P
1514324395.8,286046995.6,Y
1514324415.6,286047000.2,P
1514324435.5,286047001.4,N
1514324455.3,286047000.4,N
1514324475.1,286047004.0,N
1514324495.9,286047004.4,N
1514324515.7,286047003.3,N
1514324535.5,286047002.9,N
1514324555.4,286047003.5,N
1514324575.2,286047005.1,N
1514324595.1,286047006.5,N
1514324596.0,286047006.5,N
1514324615.8,286047008.3,N
1514324635.6,286047006.6,N
1514324655.5,286047007.5,N
1514324675.3,286047006.3,N
1514324695.2,286047009.0,N
1514324715.9,286047008.5,N
1514324735.7,286047007.4,N
1514324755.6,286047008.8,N
1514324775.4,286047009.2,N
1514324795.2,286047006.7,N
1514324815.1,286047008.7,N
1514324816.0,286047008.7,N
1514324835.8,286047004.5,N
1514324855.7,286047007.1,N
1514324875.5,286047004.5,N
1514324895.3,286047006.6,N
1514324915.2,286047006.8,N
1514324935.0,286047009.2,Y
1514324935.9,286047009.2,P
1514324955.8,286047002.3,N
1514324975.6,286047000.5,N
1514324995.4,286047002.7,N
1514325015.3,286047001.0,N
1514325035.1,286046998.6,N
1514325055.8,286046998.8,N
1514325075.7,286046998.5,N
1514325095.5,286047000.4,N
1514325115.4,286047001.6,N
1514325135.2,286047004.0,N
1514325155.0,286047000.5,N
1514325155.9,286047000.5,N
1514325175.8,286047000.0,N
1514325195.6,286047000.8,N
1514325215.5,286047000.0,N
1514325235.3,286047002.4,N
1514325255.1,286047000.8,N
1514325275.9,286046999.6,N
1514325295.7,286046998.4,N
1514325315.5,286046998.0,N
1514325335.4,286046997.6,N
1514325355.2,286046999.4,N
1514325375.1,286046997.6,N
1514325376.0,286046997.6,N
1514325395.8,286046996.8,N
1514325415.6,286046997.1,N
1514325435.5,286046998.5,N
1514325455.3,286046999.5,N
1514325505.2,286046999.2,E
1514325515.1,286046999.5,N
1514325535.8,286046999.1,P
1514325555.7,286046996.9,P
1514325575.5,286046999.2,N
1514325595.4,286046999.2,N
